| time (UTC) | temp F | wind direction | speed MPH | gust MPH | rain 1hr in | rain 24hr in | rain mn in | humidity % | barometer mb |
| 20260510043021 | 54 | 184 | 2.0 | 1.0 | 0.00 | 0.00 | 0.00 | 95 | 1009.4 |
| 20260510042515 | 54 | 125 | 1.0 | 1.0 | 0.00 | 0.00 | 0.00 | 95 | 1009.7 |
| 20260510042010 | 55 | 120 | 1.0 | 3.0 | 0.00 | 0.00 | 0.00 | 95 | 1009.6 |
| 20260510041509 | 55 | 119 | 3.0 | 3.0 | 0.00 | 0.00 | 0.00 | 95 | 1009.6 |
| 20260510041006 | 55 | 135 | 3.0 | 3.0 | 0.00 | 0.00 | 0.00 | 95 | 1009.8 |
| 20260510040502 | 55 | 77 | 2.0 | 3.0 | 0.00 | 0.00 | 0.00 | 95 | 1010.1 |
| 20260510035957 | 55 | 8 | 1.0 | 1.0 | 0.00 | 1.03 | 1.03 | 95 | 1009.6 |
| 20260510035455 | 55 | 5 | 1.0 | 3.0 | 0.00 | 1.03 | 1.03 | 95 | 1009.7 |
| 20260510034954 | 55 | 68 | 3.0 | 3.0 | 0.07 | 1.03 | 1.03 | 95 | 1009.9 |
| 20260510034453 | 55 | 355 | 5.0 | 5.0 | 0.07 | 1.03 | 1.03 | 94 | 1009.8 |
| 20260510033949 | 55 | 261 | 0.0 | 4.0 | 0.00 | 1.02 | 1.02 | 94 | 1009.4 |
| 20260510033445 | 55 | 186 | 3.0 | 4.0 | 0.00 | 1.02 | 1.02 | 93 | 1009.3 |
| 20260510032942 | 55 | 188 | 0.0 | 3.0 | 0.00 | 1.02 | 1.02 | 94 | 1009.5 |
| 20260510032439 | 55 | 191 | 2.0 | 4.0 | 0.00 | 1.02 | 1.02 | 94 | 1009.7 |
| 20260510031939 | 55 | 220 | 2.0 | 4.0 | 0.00 | 1.02 | 1.02 | 94 | 1009.8 |
| 20260510031435 | 55 | 171 | 2.0 | 3.0 | 0.00 | 1.02 | 1.02 | 94 | 1009.5 |
| 20260510030931 | 55 | 226 | 1.0 | 1.0 | 0.00 | 1.02 | 1.02 | 94 | 1009.6 |
| 20260510030426 | 55 | 227 | 0.0 | 1.0 | 0.00 | 1.02 | 1.02 | 94 | 1009.5 |
| 20260510025924 | 55 | 256 | 2.0 | 3.0 | 0.17 | 1.02 | 1.02 | 94 | 1009.5 |
| 20260510025421 | 55 | 20 | 4.0 | 7.0 | 0.17 | 1.02 | 1.02 | 95 | 1009.5 |
| 20260510024919 | 54 | 7 | 0.0 | 3.0 | 0.00 | 0.99 | 0.99 | 95 | 1009.9 |
| 20260510024415 | 54 | 247 | 0.0 | 1.0 | 0.00 | 0.99 | 0.99 | 95 | 1009.2 |
| 20260510023911 | 54 | 245 | 0.0 | 0.0 | 0.00 | 0.99 | 0.99 | 95 | 1008.8 |
| 20260510023407 | 54 | 245 | 0.0 | 3.0 | 0.00 | 0.99 | 0.99 | 95 | 1008.9 |
| 20260510022905 | 54 | 202 | 1.0 | 1.0 | 0.00 | 0.99 | 0.99 | 95 | 1008.9 |
| 20260510022404 | 54 | 158 | 1.0 | 5.0 | 0.19 | 0.99 | 0.99 | 95 | 1008.8 |
| 20260510021903 | 54 | 153 | 3.0 | 3.0 | 0.19 | 0.99 | 0.99 | 95 | 1008.7 |
| 20260510021401 | 54 | 238 | 1.0 | 3.0 | 0.05 | 0.97 | 0.97 | 95 | 1009.0 |
| 20260510020857 | 54 | 217 | 1.0 | 1.0 | 0.00 | 0.96 | 0.96 | 95 | 1008.7 |
| 20260510020352 | 54 | 227 | 0.0 | 1.0 | 0.00 | 0.96 | 0.96 | 94 | 1008.8 |
| 20260510015848 | 54 | 227 | 1.0 | 1.0 | 0.00 | 0.96 | 0.96 | 94 | 1008.6 |
| 20260510015344 | 54 | 227 | 0.0 | 0.0 | 0.00 | 0.96 | 0.96 | 94 | 1008.6 |
| 20260510014839 | 54 | 227 | 0.0 | 1.0 | 0.00 | 0.96 | 0.96 | 93 | 1008.6 |
| 20260510014337 | 54 | 231 | 1.0 | 1.0 | 0.00 | 0.96 | 0.96 | 93 | 1008.5 |
| 20260510013833 | 55 | 125 | 1.0 | 3.0 | 0.00 | 0.96 | 0.96 | 93 | 1008.4 |
| 20260510013329 | 55 | 237 | 0.0 | 1.0 | 0.00 | 0.96 | 0.96 | 93 | 1008.6 |
| 20260510012824 | 55 | 231 | 0.0 | 3.0 | 0.00 | 0.96 | 0.96 | 93 | 1008.6 |
| 20260510012323 | 55 | 228 | 2.0 | 4.0 | 0.00 | 0.96 | 0.96 | 93 | 1008.6 |
| 20260510011819 | 55 | 134 | 2.0 | 4.0 | 0.00 | 0.96 | 0.96 | 93 | 1008.2 |
| 20260510011314 | 54 | 246 | 1.0 | 3.0 | 0.00 | 0.96 | 0.96 | 93 | 1008.3 |
| 20260510010811 | 54 | 200 | 1.0 | 5.0 | 0.00 | 0.96 | 0.96 | 93 | 1008.2 |
| 20260510010308 | 54 | 286 | 0.0 | 1.0 | 0.00 | 0.96 | 0.96 | 93 | 1008.2 |
| 20260510005805 | 55 | 218 | 0.0 | 1.0 | 0.00 | 0.96 | 0.96 | 92 | 1008.3 |
| 20260510005301 | 55 | 215 | 1.0 | 3.0 | 0.00 | 0.96 | 0.96 | 92 | 1008.2 |
| 20260510004759 | 55 | 265 | 1.0 | 4.0 | 0.00 | 0.96 | 0.96 | 92 | 1008.1 |
| 20260510004256 | 55 | 222 | 2.0 | 4.0 | 0.00 | 0.96 | 0.96 | 91 | 1008.3 |
| 20260510003754 | 55 | 263 | 4.0 | 7.0 | 0.07 | 0.96 | 0.96 | 91 | 1008.3 |
| 20260510003250 | 55 | 187 | 2.0 | 7.0 | 0.07 | 0.96 | 0.96 | 91 | 1008.1 |
| 20260510002749 | 55 | 222 | 3.0 | 3.0 | 0.12 | 0.95 | 0.95 | 92 | 1007.9 |
| 20260510002247 | 55 | 308 | 0.0 | 4.0 | 0.17 | 0.95 | 0.95 | 92 | 1008.5 |
| 20260510001743 | 55 | 269 | 3.0 | 4.0 | 0.17 | 0.93 | 0.93 | 92 | 1008.6 |
| 20260510001242 | 55 | 288 | 3.0 | 5.0 | 0.24 | 0.92 | 0.92 | 93 | 1008.5 |
| 20260510000737 | 55 | 303 | 4.0 | 7.0 | 0.31 | 0.90 | 0.90 | 92 | 1008.6 |
| 20260510000235 | 55 | 265 | 1.0 | 10.0 | 0.78 | 0.88 | 0.88 | 92 | 1008.7 |
| 20260509235731 | 55 | 275 | 2.0 | 19.0 | 1.02 | 0.84 | 0.84 | 91 | 1008.7 |
| 20260509235228 | 55 | 322 | 14.0 | 23.0 | 0.90 | 0.74 | 0.74 | 88 | 1007.9 |
| 20260509234724 | 57 | 2 | 9.0 | 19.0 | 0.61 | 0.66 | 0.66 | 85 | 1007.4 |
| 20260509234221 | 60 | 290 | 4.0 | 21.0 | 0.12 | 0.58 | 0.58 | 77 | 1007.8 |
| 20260509233719 | 66 | 358 | 8.0 | 11.0 | 0.00 | 0.56 | 0.56 | 57 | 1007.5 |
| 20260509233216 | 67 | 266 | 2.0 | 7.0 | 0.00 | 0.56 | 0.56 | 54 | 1006.4 |
| 20260509232713 | 67 | 255 | 6.0 | 8.0 | 0.00 | 0.56 | 0.56 | 52 | 1006.2 |
| 20260509232210 | 67 | 252 | 4.0 | 7.0 | 0.00 | 0.56 | 0.56 | 52 | 1006.0 |
| 20260509231706 | 67 | 221 | 7.0 | 16.0 | 0.00 | 0.56 | 0.56 | 51 | 1005.8 |
| 20260509231204 | 67 | 214 | 10.0 | 12.0 | 0.00 | 0.56 | 0.56 | 50 | 1005.8 |
| 20260509230701 | 67 | 164 | 6.0 | 11.0 | 0.00 | 0.56 | 0.56 | 50 | 1005.9 |
| 20260509230157 | 67 | 226 | 4.0 | 10.0 | 0.00 | 0.56 | 0.56 | 50 | 1006.0 |
| 20260509225653 | 67 | 222 | 4.0 | 8.0 | 0.00 | 0.56 | 0.56 | 51 | 1005.9 |
| 20260509225149 | 68 | 227 | 16.0 | 19.0 | 0.00 | 0.56 | 0.56 | 50 | 1005.8 |
| 20260509224644 | 68 | 156 | 3.0 | 4.0 | 0.00 | 0.56 | 0.56 | 52 | 1005.4 |
| 20260509224142 | 68 | 191 | 8.0 | 21.0 | 0.00 | 0.56 | 0.56 | 50 | 1005.6 |
| 20260509223638 | 68 | 217 | 3.0 | 8.0 | 0.00 | 0.56 | 0.56 | 49 | 1005.7 |
| 20260509223136 | 68 | 227 | 7.0 | 11.0 | 0.00 | 0.56 | 0.56 | 49 | 1006.0 |
| 20260509222633 | 69 | 186 | 12.0 | 15.0 | 0.00 | 0.56 | 0.56 | 47 | 1005.6 |
| 20260509222128 | 69 | 203 | 5.0 | 10.0 | 0.00 | 0.56 | 0.56 | 47 | 1005.8 |
| 20260509221624 | 69 | 231 | 9.0 | 16.0 | 0.00 | 0.56 | 0.56 | 46 | 1005.8 |
| 20260509221120 | 69 | 257 | 6.0 | 12.0 | 0.00 | 0.56 | 0.56 | 49 | 1005.7 |
| 20260509220616 | 69 | 201 | 5.0 | 16.0 | 0.00 | 0.56 | 0.56 | 48 | 1005.7 |
| 20260509220113 | 69 | 268 | 12.0 | 21.0 | 0.00 | 0.56 | 0.56 | 48 | 1006.0 |
| 20260509215608 | 69 | 217 | 3.0 | 10.0 | 0.00 | 0.56 | 0.56 | 50 | 1005.6 |
| 20260509215106 | 69 | 201 | 9.0 | 10.0 | 0.00 | 0.56 | 0.56 | 49 | 1005.7 |
| 20260509214602 | 69 | 207 | 7.0 | 16.0 | 0.00 | 0.56 | 0.56 | 48 | 1005.6 |
| 20260509214059 | 69 | 217 | 8.0 | 12.0 | 0.00 | 0.56 | 0.56 | 48 | 1005.7 |
| 20260509213555 | 69 | 159 | 9.0 | 16.0 | 0.00 | 0.56 | 0.56 | 47 | 1005.8 |
| 20260509213052 | 69 | 263 | 7.0 | 19.0 | 0.00 | 0.56 | 0.56 | 48 | 1005.9 |
| 20260509212549 | 69 | 249 | 8.0 | 14.0 | 0.00 | 0.56 | 0.56 | 46 | 1005.8 |
| 20260509212046 | 68 | 208 | 4.0 | 12.0 | 0.00 | 0.56 | 0.56 | 50 | 1006.1 |
| 20260509211542 | 69 | 275 | 10.0 | 16.0 | 0.00 | 0.56 | 0.56 | 48 | 1006.1 |
| 20260509211039 | 69 | 201 | 6.0 | 12.0 | 0.00 | 0.56 | 0.56 | 49 | 1006.2 |
| 20260509210536 | 69 | 128 | 4.0 | 14.0 | 0.00 | 0.56 | 0.56 | 49 | 1006.0 |
| 20260509210032 | 69 | 158 | 8.0 | 15.0 | 0.00 | 0.56 | 0.56 | 48 | 1006.2 |
| 20260509205526 | 70 | 206 | 11.0 | 14.0 | 0.00 | 0.56 | 0.56 | 46 | 1006.5 |
| 20260509205022 | 69 | 135 | 4.0 | 10.0 | 0.00 | 0.56 | 0.56 | 46 | 1006.3 |
| 20260509204518 | 68 | 199 | 6.0 | 12.0 | 0.00 | 0.56 | 0.56 | 52 | 1006.3 |
| 20260509204015 | 68 | 203 | 8.0 | 14.0 | 0.00 | 0.56 | 0.56 | 50 | 1006.4 |
| 20260509203510 | 67 | 241 | 10.0 | 21.0 | 0.00 | 0.56 | 0.56 | 51 | 1006.4 |
| 20260509203009 | 69 | 175 | 7.0 | 10.0 | 0.00 | 0.56 | 0.56 | 50 | 1006.5 |
| 20260509202503 | 69 | 266 | 8.0 | 16.0 | 0.00 | 0.56 | 0.56 | 50 | 1006.4 |
| 20260509201959 | 70 | 202 | 9.0 | 19.0 | 0.00 | 0.56 | 0.56 | 50 | 1006.6 |
| 20260509201454 | 68 | 187 | 4.0 | 10.0 | 0.00 | 0.56 | 0.56 | 54 | 1006.6 |
| 20260509200951 | 69 | 234 | 9.0 | 12.0 | 0.00 | 0.56 | 0.56 | 50 | 1006.7 |
| 20260509200446 | 68 | 250 | 6.0 | 10.0 | 0.00 | 0.56 | 0.56 | 52 | 1006.7 |
| 20260509195943 | 68 | 102 | 7.0 | 10.0 | 0.00 | 0.56 | 0.56 | 53 | 1006.8 |
| 20260509195433 | 68 | 201 | 5.0 | 5.0 | 0.00 | 0.56 | 0.56 | 51 | 1006.9 |
| 20260509194932 | 68 | 181 | 5.0 | 12.0 | 0.00 | 0.56 | 0.56 | 53 | 1007.1 |
| 20260509194428 | 67 | 215 | 5.0 | 16.0 | 0.00 | 0.56 | 0.56 | 53 | 1007.2 |
| 20260509193926 | 67 | 227 | 7.0 | 15.0 | 0.00 | 0.56 | 0.56 | 53 | 1007.1 |
| 20260509193425 | 67 | 213 | 4.0 | 16.0 | 0.00 | 0.56 | 0.56 | 53 | 1007.4 |
| 20260509192921 | 67 | 219 | 16.0 | 19.0 | 0.00 | 0.56 | 0.56 | 52 | 1007.7 |
| 20260509192418 | 67 | 242 | 12.0 | 15.0 | 0.00 | 0.56 | 0.56 | 51 | 1007.7 |
| 20260509191913 | 68 | 235 | 8.0 | 18.0 | 0.00 | 0.56 | 0.56 | 50 | 1007.5 |
| 20260509191409 | 67 | 256 | 5.0 | 8.0 | 0.00 | 0.56 | 0.56 | 54 | 1007.6 |
| 20260509190905 | 66 | 228 | 7.0 | 16.0 | 0.00 | 0.56 | 0.56 | 56 | 1007.6 |
| 20260509190402 | 67 | 178 | 9.0 | 12.0 | 0.00 | 0.56 | 0.56 | 51 | 1007.5 |
| 20260509185900 | 68 | 250 | 7.0 | 15.0 | 0.00 | 0.56 | 0.56 | 54 | 1007.7 |
| 20260509185356 | 67 | 265 | 8.0 | 12.0 | 0.00 | 0.56 | 0.56 | 53 | 1007.8 |
| 20260509184853 | 66 | 240 | 4.0 | 8.0 | 0.00 | 0.56 | 0.56 | 54 | 1007.8 |
| 20260509184350 | 66 | 233 | 11.0 | 18.0 | 0.00 | 0.56 | 0.56 | 53 | 1007.8 |
| 20260509183847 | 67 | 229 | 8.0 | 10.0 | 0.00 | 0.56 | 0.56 | 53 | 1007.7 |
| 20260509183342 | 65 | 226 | 14.0 | 15.0 | 0.00 | 0.56 | 0.56 | 56 | 1007.8 |
| 20260509182838 | 65 | 233 | 5.0 | 16.0 | 0.00 | 0.56 | 0.56 | 55 | 1008.0 |
| 20260509182335 | 66 | 210 | 7.0 | 15.0 | 0.00 | 0.56 | 0.56 | 55 | 1008.0 |
| 20260509181833 | 65 | 188 | 7.0 | 16.0 | 0.00 | 0.56 | 0.56 | 58 | 1008.0 |
| 20260509181330 | 64 | 276 | 4.0 | 11.0 | 0.00 | 0.56 | 0.56 | 61 | 1007.9 |
| 20260509180827 | 64 | 234 | 9.0 | 15.0 | 0.00 | 0.56 | 0.56 | 58 | 1008.2 |
| 20260509180323 | 64 | 242 | 7.0 | 15.0 | 0.00 | 0.56 | 0.56 | 58 | 1008.1 |
| 20260509175820 | 64 | 232 | 5.0 | 14.0 | 0.00 | 0.56 | 0.56 | 59 | 1008.0 |
| 20260509175316 | 65 | 124 | 6.0 | 11.0 | 0.00 | 0.56 | 0.56 | 59 | 1008.0 |
| 20260509174812 | 65 | 243 | 5.0 | 10.0 | 0.00 | 0.56 | 0.56 | 61 | 1008.1 |
| 20260509174308 | 64 | 211 | 3.0 | 7.0 | 0.00 | 0.56 | 0.56 | 63 | 1008.1 |
| 20260509173804 | 63 | 273 | 9.0 | 14.0 | 0.00 | 0.56 | 0.56 | 60 | 1007.8 |
| 20260509173300 | 63 | 239 | 6.0 | 11.0 | 0.00 | 0.56 | 0.56 | 62 | 1007.8 |
| 20260509172756 | 64 | 200 | 9.0 | 11.0 | 0.00 | 0.56 | 0.56 | 61 | 1007.8 |
| 20260509172253 | 64 | 185 | 4.0 | 8.0 | 0.00 | 0.56 | 0.56 | 63 | 1007.9 |
| 20260509171748 | 64 | 228 | 4.0 | 11.0 | 0.00 | 0.56 | 0.56 | 62 | 1007.9 |
| 20260509171245 | 64 | 214 | 3.0 | 5.0 | 0.00 | 0.56 | 0.56 | 65 | 1008.3 |
| 20260509170741 | 63 | 253 | 4.0 | 8.0 | 0.00 | 0.56 | 0.56 | 65 | 1008.1 |
| 20260509170237 | 63 | 194 | 3.0 | 7.0 | 0.00 | 0.56 | 0.56 | 65 | 1008.1 |
| 20260509165736 | 63 | 234 | 6.0 | 8.0 | 0.00 | 0.56 | 0.56 | 64 | 1008.2 |
| 20260509165231 | 63 | 230 | 4.0 | 10.0 | 0.00 | 0.56 | 0.56 | 63 | 1008.2 |
| 20260509164727 | 63 | 139 | 7.0 | 12.0 | 0.00 | 0.56 | 0.56 | 64 | 1008.4 |
| 20260509164223 | 62 | 266 | 2.0 | 5.0 | 0.00 | 0.56 | 0.56 | 66 | 1008.4 |
| 20260509163721 | 62 | 243 | 2.0 | 8.0 | 0.00 | 0.56 | 0.56 | 67 | 1008.2 |
| 20260509163217 | 62 | 237 | 8.0 | 8.0 | 0.00 | 0.56 | 0.56 | 67 | 1008.4 |
| 20260509162715 | 62 | 142 | 5.0 | 12.0 | 0.00 | 0.56 | 0.56 | 70 | 1008.4 |
| 20260509162210 | 60 | 235 | 3.0 | 10.0 | 0.00 | 0.56 | 0.56 | 73 | 1008.3 |
| 20260509161706 | 61 | 214 | 11.0 | 12.0 | 0.00 | 0.56 | 0.56 | 71 | 1008.5 |
| 20260509161202 | 60 | 238 | 3.0 | 7.0 | 0.00 | 0.56 | 0.56 | 77 | 1008.4 |
| 20260509160657 | 60 | 210 | 11.0 | 14.0 | 0.00 | 0.56 | 0.56 | 73 | 1008.4 |
| 20260509160153 | 60 | 192 | 7.0 | 12.0 | 0.00 | 0.56 | 0.56 | 74 | 1008.5 |
| 20260509155649 | 60 | 261 | 4.0 | 8.0 | 0.00 | 0.56 | 0.56 | 77 | 1008.5 |
| 20260509155146 | 59 | 263 | 8.0 | 11.0 | 0.00 | 0.56 | 0.56 | 76 | 1008.4 |
| 20260509154641 | 58 | 271 | 2.0 | 8.0 | 0.00 | 0.56 | 0.56 | 80 | 1008.5 |
| 20260509154139 | 58 | 262 | 2.0 | 4.0 | 0.00 | 0.56 | 0.56 | 80 | 1008.4 |
| 20260509153636 | 58 | 222 | 3.0 | 11.0 | 0.00 | 0.56 | 0.56 | 80 | 1008.4 |
| 20260509153132 | 58 | 160 | 3.0 | 8.0 | 0.00 | 0.56 | 0.56 | 81 | 1008.3 |
| 20260509152628 | 58 | 262 | 4.0 | 5.0 | 0.00 | 0.56 | 0.56 | 81 | 1008.5 |
| 20260509152126 | 58 | 251 | 5.0 | 11.0 | 0.00 | 0.56 | 0.56 | 81 | 1008.4 |
| 20260509151622 | 58 | 216 | 3.0 | 5.0 | 0.00 | 0.56 | 0.56 | 83 | 1008.4 |
| 20260509151120 | 58 | 221 | 9.0 | 10.0 | 0.00 | 0.56 | 0.56 | 81 | 1008.4 |
| 20260509150618 | 57 | 250 | 3.0 | 4.0 | 0.00 | 0.56 | 0.56 | 86 | 1008.4 |
| 20260509150116 | 56 | 268 | 5.0 | 7.0 | 0.00 | 0.56 | 0.56 | 87 | 1008.3 |
| 20260509145611 | 56 | 236 | 3.0 | 7.0 | 0.00 | 0.56 | 0.56 | 88 | 1008.2 |
| 20260509145106 | 56 | 207 | 2.0 | 3.0 | 0.00 | 0.56 | 0.56 | 90 | 1008.4 |
| 20260509144604 | 55 | 259 | 5.0 | 7.0 | 0.00 | 0.56 | 0.56 | 90 | 1008.5 |
| 20260509144100 | 55 | 221 | 2.0 | 8.0 | 0.00 | 0.56 | 0.56 | 91 | 1008.6 |
| 20260509143558 | 54 | 152 | 1.0 | 3.0 | 0.00 | 0.56 | 0.56 | 93 | 1008.4 |
| 20260509143055 | 54 | 220 | 2.0 | 5.0 | 0.00 | 0.56 | 0.56 | 92 | 1008.3 |
| 20260509142550 | 54 | 185 | 3.0 | 7.0 | 0.00 | 0.56 | 0.56 | 92 | 1008.4 |
| 20260509142047 | 54 | 202 | 2.0 | 5.0 | 0.00 | 0.56 | 0.56 | 92 | 1008.3 |
| 20260509141543 | 54 | 222 | 2.0 | 3.0 | 0.00 | 0.56 | 0.56 | 92 | 1008.2 |
| 20260509141040 | 54 | 258 | 2.0 | 7.0 | 0.00 | 0.56 | 0.56 | 92 | 1008.3 |
| 20260509140537 | 55 | 220 | 4.0 | 4.0 | 0.00 | 0.56 | 0.56 | 92 | 1008.3 |
| 20260509140035 | 54 | 235 | 3.0 | 8.0 | 0.00 | 0.56 | 0.56 | 93 | 1008.3 |
| 20260509135531 | 54 | 217 | 3.0 | 10.0 | 0.00 | 0.56 | 0.56 | 93 | 1008.5 |
| 20260509135029 | 54 | 250 | 3.0 | 8.0 | 0.00 | 0.56 | 0.56 | 94 | 1008.3 |
| 20260509134526 | 54 | 239 | 4.0 | 5.0 | 0.00 | 0.56 | 0.56 | 94 | 1008.3 |
| 20260509134024 | 53 | 156 | 3.0 | 4.0 | 0.00 | 0.56 | 0.56 | 95 | 1008.3 |
| 20260509133520 | 53 | 163 | 2.0 | 5.0 | 0.00 | 0.56 | 0.56 | 94 | 1008.4 |
| 20260509133018 | 53 | 216 | 3.0 | 8.0 | 0.00 | 0.56 | 0.56 | 95 | 1008.3 |
| 20260509132516 | 53 | 226 | 3.0 | 4.0 | 0.00 | 0.56 | 0.56 | 95 | 1008.3 |
| 20260509132014 | 53 | 186 | 3.0 | 4.0 | 0.00 | 0.56 | 0.56 | 95 | 1008.4 |
| 20260509131510 | 53 | 209 | 6.0 | 7.0 | 0.00 | 0.56 | 0.56 | 95 | 1008.4 |
| 20260509131007 | 53 | 220 | 6.0 | 7.0 | 0.00 | 0.56 | 0.56 | 95 | 1008.5 |
| 20260509130502 | 53 | 212 | 1.0 | 4.0 | 0.00 | 0.56 | 0.56 | 95 | 1008.6 |
| 20260509125959 | 52 | 207 | 4.0 | 7.0 | 0.00 | 0.56 | 0.56 | 95 | 1008.5 |
| 20260509125456 | 52 | 210 | 2.0 | 3.0 | 0.00 | 0.56 | 0.56 | 95 | 1008.8 |
| 20260509124951 | 52 | 221 | 3.0 | 5.0 | 0.00 | 0.56 | 0.56 | 95 | 1008.8 |
| 20260509124449 | 52 | 208 | 2.0 | 3.0 | 0.00 | 0.56 | 0.56 | 96 | 1008.9 |
| 20260509123946 | 52 | 247 | 3.0 | 5.0 | 0.00 | 0.56 | 0.56 | 96 | 1008.6 |
| 20260509123444 | 52 | 228 | 1.0 | 1.0 | 0.00 | 0.56 | 0.56 | 96 | 1008.7 |
| 20260509122939 | 52 | 223 | 1.0 | 1.0 | 0.00 | 0.56 | 0.56 | 96 | 1008.8 |
| 20260509122437 | 52 | 250 | 3.0 | 4.0 | 0.05 | 0.56 | 0.56 | 96 | 1008.8 |
| 20260509121933 | 52 | 196 | 1.0 | 1.0 | 0.05 | 0.56 | 0.56 | 96 | 1008.8 |
| 20260509121430 | 51 | 227 | 1.0 | 3.0 | 0.00 | 0.55 | 0.55 | 96 | 1008.9 |
| 20260509120928 | 51 | 186 | 1.0 | 3.0 | 0.00 | 0.55 | 0.55 | 96 | 1008.7 |
| 20260509120426 | 51 | 136 | 2.0 | 4.0 | 0.00 | 0.55 | 0.55 | 96 | 1008.8 |
| 20260509115924 | 51 | 204 | 2.0 | 3.0 | 0.00 | 0.55 | 0.55 | 96 | 1008.8 |
| 20260509115421 | 51 | 240 | 2.0 | 1.0 | 0.00 | 0.55 | 0.55 | 96 | 1008.8 |
| 20260509114918 | 51 | 240 | 0.0 | 1.0 | 0.00 | 0.55 | 0.55 | 96 | 1008.8 |
| 20260509114417 | 51 | 220 | 1.0 | 3.0 | 0.00 | 0.55 | 0.55 | 96 | 1008.8 |
| 20260509113916 | 51 | 230 | 0.0 | 1.0 | 0.00 | 0.55 | 0.55 | 96 | 1008.8 |
| 20260509113413 | 51 | 206 | 2.0 | 5.0 | 0.00 | 0.55 | 0.55 | 96 | 1008.9 |
| 20260509112909 | 51 | 213 | 3.0 | 3.0 | 0.07 | 0.55 | 0.55 | 96 | 1008.9 |
| 20260509112407 | 51 | 217 | 3.0 | 7.0 | 0.07 | 0.55 | 0.55 | 96 | 1008.6 |
| 20260509111904 | 51 | 226 | 2.0 | 3.0 | 0.00 | 0.54 | 0.54 | 96 | 1008.8 |
| 20260509111400 | 51 | 208 | 6.0 | 7.0 | 0.05 | 0.54 | 0.54 | 96 | 1008.5 |
| 20260509110858 | 51 | 218 | 2.0 | 5.0 | 0.00 | 0.53 | 0.53 | 96 | 1008.5 |
| 20260509110354 | 51 | 240 | 2.0 | 3.0 | 0.00 | 0.53 | 0.53 | 96 | 1008.6 |
| 20260509105852 | 51 | 226 | 3.0 | 5.0 | 0.00 | 0.53 | 0.53 | 96 | 1008.6 |
| 20260509105350 | 51 | 213 | 3.0 | 4.0 | 0.00 | 0.53 | 0.53 | 96 | 1008.4 |
| 20260509104847 | 51 | 211 | 1.0 | 3.0 | 0.00 | 0.53 | 0.53 | 96 | 1008.4 |
| 20260509104343 | 51 | 233 | 1.0 | 1.0 | 0.00 | 0.53 | 0.53 | 96 | 1008.6 |
| 20260509103841 | 51 | 229 | 3.0 | 5.0 | 0.00 | 0.53 | 0.53 | 96 | 1008.5 |
| 20260509103338 | 51 | 219 | 1.0 | 3.0 | 0.00 | 0.53 | 0.53 | 96 | 1008.3 |
| 20260509102837 | 51 | 191 | 1.0 | 1.0 | 0.07 | 0.53 | 0.53 | 96 | 1008.2 |
| 20260509102334 | 51 | 227 | 2.0 | 5.0 | 0.07 | 0.53 | 0.53 | 96 | 1008.6 |
| 20260509101829 | 51 | 157 | 2.0 | 3.0 | 0.00 | 0.52 | 0.52 | 96 | 1008.6 |
| 20260509101326 | 51 | 194 | 1.0 | 3.0 | 0.00 | 0.52 | 0.52 | 96 | 1008.5 |
| 20260509100824 | 51 | 212 | 1.0 | 4.0 | 0.00 | 0.52 | 0.52 | 96 | 1008.6 |
| 20260509100321 | 51 | 235 | 2.0 | 3.0 | 0.00 | 0.52 | 0.52 | 96 | 1008.6 |
| 20260509095817 | 51 | 143 | 1.0 | 3.0 | 0.05 | 0.52 | 0.52 | 96 | 1008.6 |
| 20260509095315 | 51 | 165 | 2.0 | 3.0 | 0.05 | 0.52 | 0.52 | 96 | 1008.6 |
| 20260509094812 | 51 | 160 | 2.0 | 3.0 | 0.00 | 0.51 | 0.51 | 96 | 1008.7 |
| 20260509094308 | 51 | 176 | 1.0 | 3.0 | 0.00 | 0.51 | 0.51 | 96 | 1008.8 |
| 20260509093806 | 51 | 232 | 1.0 | 3.0 | 0.00 | 0.51 | 0.51 | 96 | 1008.8 |
| 20260509093303 | 51 | 188 | 1.0 | 3.0 | 0.00 | 0.51 | 0.51 | 96 | 1008.8 |
| 20260509092802 | 51 | 217 | 2.0 | 4.0 | 0.07 | 0.51 | 0.51 | 96 | 1008.9 |
| 20260509092259 | 50 | 186 | 2.0 | 1.0 | 0.07 | 0.51 | 0.51 | 96 | 1008.7 |
| 20260509091757 | 50 | 227 | 2.0 | 4.0 | 0.00 | 0.50 | 0.50 | 96 | 1009.0 |
| 20260509091253 | 50 | 146 | 1.0 | 4.0 | 0.00 | 0.50 | 0.50 | 96 | 1009.0 |
| 20260509090751 | 50 | 126 | 1.0 | 4.0 | 0.00 | 0.50 | 0.50 | 97 | 1009.0 |
| 20260509090248 | 50 | 231 | 2.0 | 4.0 | 0.05 | 0.50 | 0.50 | 97 | 1008.9 |
| 20260509085745 | 50 | 143 | 0.0 | 4.0 | 0.19 | 0.50 | 0.50 | 97 | 1009.0 |
| 20260509085243 | 50 | 233 | 2.0 | 3.0 | 0.26 | 0.49 | 0.49 | 97 | 1009.1 |
| 20260509084739 | 50 | 8 | 1.0 | 1.0 | 0.17 | 0.47 | 0.47 | 97 | 1009.3 |
| 20260509084236 | 50 | 296 | 0.0 | 3.0 | 0.05 | 0.45 | 0.45 | 97 | 1009.2 |
| 20260509083734 | 50 | 106 | 1.0 | 3.0 | 0.00 | 0.44 | 0.44 | 96 | 1009.2 |
| 20260509083230 | 50 | 239 | 1.0 | 1.0 | 0.07 | 0.44 | 0.44 | 96 | 1009.3 |
| 20260509082727 | 50 | 217 | 0.0 | 0.0 | 0.07 | 0.44 | 0.44 | 96 | 1009.2 |
| 20260509082224 | 50 | 217 | 1.0 | 1.0 | 0.12 | 0.43 | 0.43 | 96 | 1009.1 |
| 20260509081720 | 50 | 230 | 0.0 | 1.0 | 0.12 | 0.42 | 0.42 | 96 | 1009.3 |
| 20260509081218 | 50 | 230 | 0.0 | 1.0 | 0.12 | 0.41 | 0.41 | 96 | 1009.4 |
| 20260509080716 | 50 | 253 | 2.0 | 3.0 | 0.19 | 0.40 | 0.40 | 96 | 1009.5 |
| 20260509080213 | 50 | 154 | 1.0 | 3.0 | 0.24 | 0.39 | 0.39 | 96 | 1009.3 |
| 20260509075711 | 50 | 196 | 1.0 | 4.0 | 0.19 | 0.37 | 0.37 | 96 | 1009.3 |
| 20260509075209 | 50 | 175 | 2.0 | 4.0 | 0.05 | 0.34 | 0.34 | 96 | 1009.2 |
| 20260509074705 | 50 | 138 | 3.0 | 5.0 | 0.12 | 0.33 | 0.33 | 96 | 1009.3 |
| 20260509074203 | 50 | 216 | 4.0 | 5.0 | 0.19 | 0.33 | 0.33 | 96 | 1009.3 |
| 20260509073659 | 50 | 188 | 3.0 | 4.0 | 0.19 | 0.31 | 0.31 | 96 | 1009.3 |
| 20260509073155 | 50 | 202 | 3.0 | 7.0 | 0.12 | 0.30 | 0.30 | 96 | 1009.5 |
| 20260509072652 | 50 | 252 | 2.0 | 4.0 | 0.05 | 0.28 | 0.28 | 96 | 1009.5 |
| 20260509072149 | 50 | 217 | 2.0 | 5.0 | 0.05 | 0.28 | 0.28 | 96 | 1009.5 |
| 20260509071645 | 50 | 218 | 3.0 | 5.0 | 0.00 | 0.27 | 0.27 | 96 | 1009.4 |
| 20260509071143 | 50 | 201 | 2.0 | 8.0 | 0.07 | 0.27 | 0.27 | 96 | 1009.4 |
| 20260509070640 | 50 | 119 | 3.0 | 4.0 | 0.19 | 0.27 | 0.27 | 96 | 1009.6 |
| 20260509070136 | 50 | 225 | 3.0 | 4.0 | 0.19 | 0.26 | 0.26 | 96 | 1009.4 |
| 20260509065632 | 50 | 165 | 7.0 | 7.0 | 0.12 | 0.24 | 0.24 | 96 | 1009.4 |
| 20260509065128 | 50 | 155 | 4.0 | 5.0 | 0.12 | 0.23 | 0.23 | 96 | 1009.5 |
| 20260509064626 | 50 | 166 | 2.0 | 3.0 | 0.07 | 0.22 | 0.22 | 96 | 1009.7 |
| 20260509064124 | 50 | 147 | 2.0 | 4.0 | 0.12 | 0.22 | 0.22 | 96 | 1009.6 |
| 20260509063620 | 50 | 155 | 1.0 | 5.0 | 0.05 | 0.21 | 0.21 | 96 | 1009.6 |
| 20260509063117 | 50 | 155 | 2.0 | 3.0 | 0.07 | 0.20 | 0.20 | 96 | 1009.6 |
| 20260509062614 | 50 | 159 | 1.0 | 3.0 | 0.12 | 0.20 | 0.20 | 96 | 1009.8 |
| 20260509062111 | 50 | 215 | 1.0 | 1.0 | 0.05 | 0.19 | 0.19 | 96 | 1010.0 |
| 20260509061608 | 50 | 238 | 2.0 | 3.0 | 0.00 | 0.18 | 0.18 | 96 | 1010.0 |
| 20260509061105 | 50 | 144 | 1.0 | 3.0 | 0.00 | 0.18 | 0.18 | 96 | 1009.9 |
| 20260509060603 | 50 | 150 | 0.0 | 1.0 | 0.07 | 0.18 | 0.18 | 96 | 1010.1 |
| 20260509060058 | 50 | 151 | 0.0 | 3.0 | 0.07 | 0.18 | 0.18 | 96 | 1010.1 |
| 20260509055554 | 50 | 148 | 1.0 | 1.0 | 0.05 | 0.17 | 0.17 | 96 | 1010.3 |
| 20260509055050 | 50 | 137 | 1.0 | 1.0 | 0.12 | 0.17 | 0.17 | 96 | 1010.3 |
| 20260509054547 | 50 | 138 | 1.0 | 3.0 | 0.12 | 0.16 | 0.16 | 96 | 1010.3 |
| 20260509054045 | 50 | 145 | 1.0 | 3.0 | 0.05 | 0.15 | 0.15 | 96 | 1010.3 |
| 20260509053543 | 50 | 155 | 1.0 | 3.0 | 0.19 | 0.14 | 0.14 | 96 | 1010.5 |
| 20260509053040 | 50 | 128 | 2.0 | 4.0 | 0.12 | 0.13 | 0.13 | 96 | 1010.5 |
| 20260509052538 | 50 | 134 | 1.0 | 3.0 | 0.07 | 0.11 | 0.11 | 96 | 1010.6 |
| 20260509052035 | 50 | 124 | 2.0 | 3.0 | 0.12 | 0.10 | 0.10 | 96 | 1010.5 |
| 20260509051533 | 50 | 141 | 3.0 | 4.0 | 0.12 | 0.09 | 0.09 | 96 | 1010.5 |
| 20260509051030 | 50 | 128 | 1.0 | 1.0 | 0.05 | 0.08 | 0.08 | 96 | 1010.6 |
| 20260509050527 | 50 | 127 | 0.0 | 1.0 | 0.05 | 0.08 | 0.08 | 96 | 1010.5 |
| 20260509050023 | 50 | 134 | 2.0 | 3.0 | 0.07 | 0.07 | 0.07 | 96 | 1010.5 |
| 20260509045520 | 50 | 145 | 2.0 | 4.0 | 0.07 | 0.07 | 0.07 | 96 | 1010.8 |
| 20260509045017 | 50 | 130 | 2.0 | 3.0 | 0.12 | 0.06 | 0.06 | 96 | 1010.8 |
| 20260509044515 | 50 | 128 | 3.0 | 3.0 | 0.17 | 0.06 | 0.06 | 96 | 1010.8 |
| 20260509044013 | 50 | 126 | 1.0 | 1.0 | 0.17 | 0.04 | 0.04 | 96 | 1010.8 |